Current weather by "City, St" or "zip code"  
 
Advertise Here

Current Conditions: Westerly, Westerly State Airport, RI

Mostly Cloudy and Breezy


75.0 F

Last Updated on Aug 4 2020, 6:53 pm EDT
Humidity: 71%
Wind Speed: S 25.3 G 34.5 mph
Barometer 29.83 in
Dewpoint: 64.9 F
Visibility: 10.00 mi
Precip: --
Heat Index: NA
Wind Chill: NA
Current conditions at:

Westerly, Westerly State Airport, RI (KWST)

Lat: 41.34972 Lon: 71.79889

Local Radar Image active severe weather and emergency alerts image image weather storm and storm spotter reports image weather observation monitoring service image
Local
Radar
Active
Alerts
Storm Reports Obs
Monitoring

Sign-up For Email & Text Message Weather Alert Notification Services


Advertise Here

Observation History for Westerly, Westerly State Airport, RI


Time Wind
(mph)
Vis
(mi)
Weather Precip (in) Temperature (F) Relative
Humidity
Wind
Chill
(F)
Heat
Index
(F)
Pressure
Air Dwpt altimeter
(in)
sea level
(mb)
Rmks
6:53 pm EDT S 25.3 G 34.5 10.00 Mostly Cloudy and Breezy -- 75.0 64.9 71% NA NA 29.83 1009.9
5:53 pm EDT S 23.0 G 38.0 9.00 Overcast and Breezy -- 77.0 64.9 66% NA NA 29.79 1008.7
4:53 pm EDT S 27.6 G 38.0 7.00 Overcast and Windy Trace 77.0 66.9 71% NA NA 29.77 1008.1
3:53 pm EDT S 26.5 G 50.6 1.00 Light Rain Fog/Mist and Windy -- 77.0 73.0 88% NA NA 29.77 1008.2
2:53 pm EDT SE 17.3 G 29.9 7.00 Overcast Trace 78.0 73.0 85% NA NA 29.81 1009.5
1:53 pm EDT E 18.4 G 25.3 8.00 Overcast -- 79.0 73.0 82% NA NA 29.88 1011.8
12:53 pm EDT E 12.7 G 20.7 10.00 Partly Cloudy -- 79.0 72.0 79% NA NA 29.94 1013.9
11:53 am EDT SE 13.8 G 23.0 10.00 Mostly Cloudy -- 80.0 73.9 82% NA 84 29.98 1015.3
10:53 am EDT SE 12.7 10.00 Overcast -- 81.0 73.9 79% NA 86 30.00 1015.9
9:53 am EDT SE 9.2 10.00 Overcast -- 80.0 73.9 82% NA 84 30.03 1016.7
8:53 am EDT SE 9.2 9.00 Overcast -- 78.0 73.9 87% NA NA 30.03 1016.7
7:53 am EDT SE 8.1 8.00 Overcast -- 77.0 72.0 85% NA NA 30.03 1016.8
6:53 am EDT SE 6.9 10.00 Mostly Cloudy -- 75.0 69.1 82% NA NA 30.05 1017.5
5:53 am EDT N 0.0 10.00 Partly Cloudy -- 73.0 68.0 84% NA NA 30.05 1017.6
4:53 am EDT N 0.0 10.00 A Few Clouds -- 73.0 66.9 81% NA NA 30.06 1017.7
3:53 am EDT N 0.0 10.00 A Few Clouds -- 73.0 68.0 84% NA NA 30.06 1018.0
2:53 am EDT N 0.0 10.00 Fair -- 75.0 68.0 79% NA NA 30.07 1018.3
1:53 am EDT SW 4.6 10.00 Fair -- 74.0 69.1 85% NA NA 30.08 1018.4
12:53 am EDT N 0.0 9.00 Fair -- 76.0 72.0 88% NA NA 30.06 1017.9
11:53 pm EDT N 0.0 10.00 Partly Cloudy -- 77.0 73.0 88% NA NA 30.07 1018.3
10:53 pm EDT SW 5.8 10.00 Mostly Cloudy -- 77.0 71.1 82% NA NA 30.09 1018.9
9:53 pm EDT SW 4.6 10.00 Fair -- 77.0 69.1 77% NA NA 30.09 1018.7
8:53 pm EDT SW 6.9 10.00 Fair -- 77.0 68.0 74% NA NA 30.07 1018.1
7:53 pm EDT SW 4.6 10.00 Fair -- 78.0 68.0 71% NA NA 30.04 1017.2

Regional Weather Observation


Willimantic, Windham Airport, CT (KIJD)

A Few Clouds and Windy
76.0 F

Westerly, Westerly State Airport, RI (KWST)

Mostly Cloudy and Breezy
75.0 F

Montauk, Montauk Airport, NY (KMTP)

NULL
75.0 F

Chester, Chester Airport, CT (KSNC)

A Few Clouds
77.0 F

N. Kingston / Quonset, RI (KOQU)

A Few Clouds and Windy
77.0 F

Providence, Theodore Francis Green State Airport, RI (KPVD)

Partly Cloudy and Windy
77.0 F